DLH07T EDDM-LFPG

Flight info

Callsign DLH07T
Flight time 1h 16m
Altitude 38000
Route GIVMI6Q GIVMI Y101 INBED DCT REKDI DCT LOHRE DCT BOMBI DCT RUDUS DCT BETEX DCT IDOSA DCT TOLVU/N0438F390 DCT RAPOR DCT VEDUS
Aircraft A20N/M-SDE2E3FGHIRWXY/LB1

Departure

Time 2026-05-08 19:18
Airport Munich Airport (EDDM)

Arrival

Time 2026-05-08 20:34
Airport Charles de Gaulle International Airport (LFPG)
Time Latitude Longitude Altitude Speed Heading
2026-05-08 18:52 48.35581 11.79731 1467 ft 0 kts 84°
2026-05-08 19:08 48.35580 11.79718 1456 ft 2 kts 83°
2026-05-08 19:08 48.35578 11.79694 1467 ft 2 kts 79°
2026-05-08 19:09 48.35574 11.79670 1457 ft 2 kts 75°
2026-05-08 19:09 48.35569 11.79646 1459 ft 2 kts 68°
2026-05-08 19:09 48.35563 11.79625 1456 ft 2 kts 59°
2026-05-08 19:09 48.35553 11.79605 1456 ft 2 kts 44°
2026-05-08 19:10 48.35545 11.79594 1459 ft 2 kts 31°
2026-05-08 19:10 48.35530 11.79584 1457 ft 2 kts 12°
2026-05-08 19:10 48.35514 11.79582 1465 ft 2 kts 358°
2026-05-08 19:10 48.35509 11.79582 1464 ft 0 kts 355°
2026-05-08 19:11 48.35512 11.79582 1464 ft 0 kts 355°
2026-05-08 19:12 48.35528 11.79579 1457 ft 4 kts 354°
2026-05-08 19:12 48.35569 11.79573 1463 ft 8 kts 354°
2026-05-08 19:13 48.35633 11.79563 1464 ft 11 kts 354°
2026-05-08 19:13 48.35715 11.79549 1463 ft 13 kts 353°
2026-05-08 19:13 48.35816 11.79530 1463 ft 16 kts 352°
2026-05-08 19:13 48.35931 11.79509 1465 ft 18 kts 353°
2026-05-08 19:14 48.36048 11.79491 1465 ft 11 kts 354°
2026-05-08 19:14 48.36099 11.79419 1459 ft 12 kts 267°
2026-05-08 19:14 48.36087 11.79261 1461 ft 19 kts 264°
2026-05-08 19:14 48.36068 11.79020 1464 ft 27 kts 263°
2026-05-08 19:15 48.36046 11.78720 1467 ft 31 kts 264°
2026-05-08 19:15 48.36022 11.78396 1459 ft 30 kts 263°
2026-05-08 19:15 48.36000 11.78117 1464 ft 27 kts 264°
2026-05-08 19:15 48.35977 11.77827 1466 ft 28 kts 264°
2026-05-08 19:16 48.35955 11.77527 1466 ft 29 kts 263°
2026-05-08 19:16 48.35931 11.77228 1463 ft 24 kts 263°
2026-05-08 19:16 48.35930 11.77043 1462 ft 17 kts 303°
2026-05-08 19:16 48.36037 11.76973 1466 ft 18 kts 354°
2026-05-08 19:17 48.36167 11.76947 1465 ft 20 kts 352°
2026-05-08 19:17 48.36277 11.76943 1462 ft 12 kts 24°
2026-05-08 19:17 48.36299 11.77051 1470 ft 14 kts 85°
2026-05-08 19:17 48.36334 11.77494 1469 ft 77 kts 84°
2026-05-08 19:18 48.36420 11.78613 1463 ft 134 kts 83°
2026-05-08 19:18 48.36536 11.80179 1688 ft 155 kts 83°
2026-05-08 19:18 48.36626 11.81750 2379 ft 151 kts 84°
2026-05-08 19:18 48.36699 11.83322 3000 ft 150 kts 84°
2026-05-08 19:19 48.36805 11.84943 3419 ft 163 kts 79°
2026-05-08 19:19 48.37298 11.86576 3713 ft 183 kts 53°
2026-05-08 19:19 48.38357 11.87818 4049 ft 209 kts 22°
2026-05-08 19:19 48.39891 11.88006 4426 ft 239 kts 348°
2026-05-08 19:20 48.41492 11.87002 5006 ft 264 kts 326°
2026-05-08 19:20 48.42443 11.85795 5510 ft 273 kts 313°
2026-05-08 19:20 48.44037 11.82772 6924 ft 276 kts 307°
2026-05-08 19:20 48.45241 11.80526 8082 ft 274 kts 308°
2026-05-08 19:21 48.46473 11.78372 9103 ft 276 kts 308°
2026-05-08 19:21 48.47721 11.76142 9820 ft 283 kts 307°
2026-05-08 19:21 48.49021 11.73791 10366 ft 302 kts 307°
2026-05-08 19:21 48.50427 11.71266 10764 ft 326 kts 308°
2026-05-08 19:22 48.51950 11.68560 11058 ft 350 kts 308°
2026-05-08 19:22 48.53570 11.65704 11548 ft 364 kts 308°
2026-05-08 19:22 48.55230 11.62788 12351 ft 369 kts 309°
2026-05-08 19:22 48.56914 11.59827 13117 ft 375 kts 309°
2026-05-08 19:23 48.58662 11.56839 13889 ft 382 kts 314°
2026-05-08 19:23 48.60796 11.54415 14594 ft 389 kts 329°
2026-05-08 19:23 48.63210 11.52475 15322 ft 394 kts 330°
2026-05-08 19:23 48.65658 11.50575 16031 ft 398 kts 331°
2026-05-08 19:24 48.68148 11.48674 16740 ft 403 kts 332°
2026-05-08 19:24 48.70667 11.46761 17437 ft 407 kts 332°
2026-05-08 19:24 48.73177 11.44855 18124 ft 412 kts 332°
2026-05-08 19:24 48.75756 11.42894 18786 ft 415 kts 332°
2026-05-08 19:25 48.78614 11.40716 19501 ft 418 kts 331°
2026-05-08 19:25 48.80954 11.38931 20058 ft 421 kts 331°
2026-05-08 19:25 48.83586 11.36919 20688 ft 424 kts 331°
2026-05-08 19:25 48.86272 11.34863 21313 ft 427 kts 331°
2026-05-08 19:26 48.88898 11.32851 21905 ft 430 kts 331°
2026-05-08 19:26 48.91585 11.30789 22507 ft 434 kts 331°
2026-05-08 19:26 48.94288 11.28713 23103 ft 437 kts 331°
2026-05-08 19:26 48.97008 11.26621 23668 ft 440 kts 331°
2026-05-08 19:27 48.99753 11.24506 24166 ft 443 kts 331°
2026-05-08 19:27 49.02512 11.22379 24634 ft 446 kts 330°
2026-05-08 19:27 49.05291 11.20233 25087 ft 449 kts 330°
2026-05-08 19:27 49.08088 11.18071 25521 ft 452 kts 330°
2026-05-08 19:28 49.10897 11.15896 25945 ft 455 kts 330°
2026-05-08 19:28 49.13732 11.13699 26348 ft 458 kts 330°
2026-05-08 19:28 49.16580 11.11488 26763 ft 460 kts 330°
2026-05-08 19:28 49.19450 11.09258 27146 ft 463 kts 330°
2026-05-08 19:29 49.22301 11.07038 27528 ft 466 kts 330°
2026-05-08 19:29 49.25198 11.04780 27851 ft 469 kts 330°
2026-05-08 19:29 49.28107 11.02511 28301 ft 469 kts 330°
2026-05-08 19:29 49.31008 11.00245 28771 ft 468 kts 330°
2026-05-08 19:30 49.33915 10.97972 29217 ft 467 kts 330°
2026-05-08 19:30 49.36719 10.95479 29675 ft 463 kts 323°
2026-05-08 19:30 49.39247 10.92458 30118 ft 460 kts 315°
2026-05-08 19:30 49.41525 10.88899 30534 ft 456 kts 308°
2026-05-08 19:31 49.43474 10.85202 30940 ft 455 kts 306°
2026-05-08 19:31 49.45471 10.81426 31363 ft 454 kts 307°
2026-05-08 19:31 49.47243 10.77452 31746 ft 451 kts 297°
2026-05-08 19:31 49.48686 10.73148 32069 ft 451 kts 291°
2026-05-08 19:32 49.49640 10.68580 32476 ft 447 kts 279°
2026-05-08 19:32 49.50041 10.63837 32861 ft 446 kts 274°
2026-05-08 19:32 49.50255 10.59099 33242 ft 445 kts 273°
2026-05-08 19:32 49.50468 10.54397 33623 ft 445 kts 274°
2026-05-08 19:33 49.50730 10.49665 33997 ft 444 kts 275°
2026-05-08 19:33 49.51031 10.44932 34312 ft 444 kts 275°
2026-05-08 19:33 49.51355 10.40206 34607 ft 444 kts 275°
2026-05-08 19:33 49.51686 10.35487 34895 ft 444 kts 275°
2026-05-08 19:34 49.52018 10.30755 35196 ft 443 kts 275°
2026-05-08 19:34 49.52347 10.26036 35467 ft 443 kts 275°
2026-05-08 19:34 49.52672 10.21324 35742 ft 443 kts 275°
2026-05-08 19:34 49.52994 10.16607 35991 ft 443 kts 275°
2026-05-08 19:35 49.53314 10.11897 36247 ft 443 kts 275°
2026-05-08 19:35 49.53633 10.07163 36495 ft 443 kts 275°
2026-05-08 19:35 49.53950 10.02436 36745 ft 443 kts 275°
2026-05-08 19:35 49.54264 9.97719 36984 ft 443 kts 275°
2026-05-08 19:36 49.54577 9.92994 37213 ft 443 kts 275°
2026-05-08 19:36 49.54888 9.88266 37457 ft 443 kts 275°
2026-05-08 19:36 49.55197 9.83538 37665 ft 443 kts 275°
2026-05-08 19:36 49.55504 9.78813 37892 ft 443 kts 275°
2026-05-08 19:37 49.55804 9.74160 38076 ft 443 kts 275°
2026-05-08 19:37 49.56408 9.64724 38106 ft 442 kts 275°
2026-05-08 19:38 49.57001 9.55314 38108 ft 442 kts 275°
2026-05-08 19:38 49.57588 9.45888 38109 ft 442 kts 275°
2026-05-08 19:39 49.58168 9.36446 38104 ft 443 kts 275°
2026-05-08 19:39 49.58740 9.26997 38107 ft 443 kts 275°
2026-05-08 19:40 49.59306 9.17543 38102 ft 443 kts 275°
2026-05-08 19:40 49.59864 9.08081 38100 ft 443 kts 275°
2026-05-08 19:41 49.60413 8.98629 38094 ft 443 kts 275°
2026-05-08 19:41 49.60951 8.89241 38094 ft 443 kts 275°
2026-05-08 19:42 49.61486 8.79765 38096 ft 443 kts 274°
2026-05-08 19:42 49.62012 8.70306 38098 ft 443 kts 274°
2026-05-08 19:43 49.62533 8.60806 38098 ft 443 kts 274°
2026-05-08 19:43 49.63045 8.51333 38100 ft 443 kts 274°
2026-05-08 19:44 49.63549 8.41845 38093 ft 443 kts 274°
2026-05-08 19:44 49.64045 8.32377 38092 ft 443 kts 274°
2026-05-08 19:45 49.64530 8.22947 38090 ft 443 kts 274°
2026-05-08 19:45 49.65015 8.13394 38092 ft 444 kts 274°
2026-05-08 19:46 49.65487 8.03898 38095 ft 444 kts 274°
2026-05-08 19:46 49.66183 7.89660 38093 ft 444 kts 274°
2026-05-08 19:47 49.66638 7.80138 38089 ft 444 kts 274°
2026-05-08 19:47 49.67084 7.70628 38088 ft 444 kts 274°
2026-05-08 19:48 49.67522 7.61127 38087 ft 444 kts 274°
2026-05-08 19:48 49.67954 7.51605 38089 ft 444 kts 274°
2026-05-08 19:49 49.68374 7.42163 38098 ft 444 kts 274°
2026-05-08 19:49 49.68792 7.32599 38103 ft 444 kts 274°
2026-05-08 19:50 49.69196 7.23146 38100 ft 444 kts 274°
2026-05-08 19:50 49.69596 7.13631 38105 ft 444 kts 274°
2026-05-08 19:51 49.69988 7.04104 38104 ft 444 kts 274°
2026-05-08 19:51 49.70308 6.96187 38105 ft 444 kts 274°
2026-05-08 19:52 49.70687 6.86649 38106 ft 444 kts 274°
2026-05-08 19:52 49.70661 6.77118 38099 ft 444 kts 266°
2026-05-08 19:53 49.70111 6.67589 38104 ft 444 kts 265°
2026-05-08 19:53 49.69605 6.58079 38103 ft 444 kts 266°
2026-05-08 19:54 49.69134 6.48563 38100 ft 444 kts 266°
2026-05-08 19:54 49.68662 6.39044 38102 ft 444 kts 266°
2026-05-08 19:55 49.68183 6.29546 38105 ft 444 kts 266°
2026-05-08 19:55 49.67694 6.20033 38105 ft 444 kts 266°
2026-05-08 19:56 49.67200 6.10546 38104 ft 444 kts 266°
2026-05-08 19:56 49.66700 6.01105 38102 ft 444 kts 266°
2026-05-08 19:57 49.66189 5.91615 38099 ft 443 kts 266°
2026-05-08 19:57 49.65671 5.82135 38102 ft 443 kts 266°
2026-05-08 19:58 49.65144 5.72644 38102 ft 443 kts 266°
2026-05-08 19:58 49.64611 5.63163 38097 ft 443 kts 266°
2026-05-08 19:59 49.64070 5.53703 38095 ft 443 kts 266°
2026-05-08 19:59 49.63521 5.44225 37805 ft 443 kts 266°
2026-05-08 20:00 49.63244 5.39506 37531 ft 442 kts 266°
2026-05-08 20:00 49.62964 5.34796 37174 ft 441 kts 267°
2026-05-08 20:00 49.62683 5.30077 36468 ft 442 kts 267°
2026-05-08 20:00 49.62398 5.25362 35802 ft 440 kts 268°
2026-05-08 20:01 49.62139 5.20659 35079 ft 437 kts 272°
2026-05-08 20:01 49.62362 5.16056 34530 ft 426 kts 284°
2026-05-08 20:01 49.63212 5.11735 33855 ft 418 kts 296°
2026-05-08 20:01 49.64571 5.07776 32804 ft 421 kts 302°
2026-05-08 20:02 49.66064 5.03830 31658 ft 429 kts 302°
2026-05-08 20:02 49.67584 4.99818 30609 ft 434 kts 302°
2026-05-08 20:02 49.69116 4.95765 29436 ft 439 kts 302°
2026-05-08 20:02 49.70636 4.91676 28635 ft 435 kts 302°
2026-05-08 20:03 49.72078 4.87728 28411 ft 419 kts 302°
2026-05-08 20:03 49.73479 4.83877 28233 ft 403 kts 302°
2026-05-08 20:03 49.74839 4.80133 27798 ft 395 kts 302°
2026-05-08 20:03 49.76188 4.76447 27079 ft 394 kts 302°
2026-05-08 20:04 49.77555 4.72761 26386 ft 393 kts 302°
2026-05-08 20:04 49.78921 4.69122 25748 ft 391 kts 302°
2026-05-08 20:04 49.80298 4.65497 25302 ft 387 kts 302°
2026-05-08 20:04 49.81495 4.61812 25148 ft 392 kts 290°
2026-05-08 20:05 49.82017 4.57596 25099 ft 399 kts 274°
2026-05-08 20:05 49.81748 4.53320 25101 ft 403 kts 258°
2026-05-08 20:05 49.80708 4.49268 25096 ft 409 kts 243°
2026-05-08 20:05 49.79173 4.45540 25098 ft 412 kts 238°
2026-05-08 20:06 49.77573 4.41883 25096 ft 410 kts 239°
2026-05-08 20:06 49.76032 4.38149 25097 ft 410 kts 241°
2026-05-08 20:06 49.74575 4.34381 25022 ft 408 kts 242°
2026-05-08 20:06 49.73167 4.30579 24663 ft 405 kts 243°
2026-05-08 20:07 49.71796 4.26794 24180 ft 403 kts 243°
2026-05-08 20:07 49.70439 4.23017 23639 ft 400 kts 243°
2026-05-08 20:07 49.68895 4.19461 23041 ft 399 kts 229°
2026-05-08 20:07 49.66764 4.16756 22467 ft 396 kts 211°
2026-05-08 20:08 49.64217 4.15189 21885 ft 394 kts 192°
2026-05-08 20:08 49.61504 4.14780 21360 ft 390 kts 182°
2026-05-08 20:08 49.58815 4.14541 20839 ft 385 kts 189°
2026-05-08 20:08 49.56305 4.13411 20323 ft 379 kts 206°
2026-05-08 20:09 49.54131 4.11186 19799 ft 374 kts 224°
2026-05-08 20:09 49.52510 4.08051 19279 ft 368 kts 242°
2026-05-08 20:09 49.51594 4.04415 18768 ft 364 kts 256°
2026-05-08 20:09 49.51008 4.00700 18253 ft 361 kts 256°
2026-05-08 20:10 49.50416 3.96952 17710 ft 357 kts 256°
2026-05-08 20:10 49.49827 3.93256 17160 ft 354 kts 256°
2026-05-08 20:10 49.49240 3.89606 16630 ft 351 kts 256°
2026-05-08 20:10 49.48651 3.85968 16097 ft 348 kts 256°
2026-05-08 20:11 49.48068 3.82375 15574 ft 346 kts 255°
2026-05-08 20:11 49.47486 3.78801 15211 ft 340 kts 255°
2026-05-08 20:11 49.46911 3.75273 15101 ft 343 kts 255°
2026-05-08 20:11 49.46328 3.71712 15072 ft 343 kts 255°
2026-05-08 20:12 49.45749 3.68178 15075 ft 341 kts 256°
2026-05-08 20:12 49.45169 3.64640 15076 ft 342 kts 255°
2026-05-08 20:12 49.44587 3.61099 15075 ft 342 kts 255°
2026-05-08 20:12 49.44005 3.57568 15076 ft 341 kts 255°
2026-05-08 20:13 49.43419 3.54021 15075 ft 342 kts 255°
2026-05-08 20:13 49.42834 3.50488 15075 ft 342 kts 255°
2026-05-08 20:13 49.42245 3.46941 15075 ft 342 kts 255°
2026-05-08 20:13 49.41514 3.43468 15068 ft 341 kts 248°
2026-05-08 20:14 49.40609 3.40124 14884 ft 339 kts 247°
2026-05-08 20:14 49.39709 3.36775 14506 ft 337 kts 247°
2026-05-08 20:14 49.38825 3.33473 14038 ft 334 kts 247°
2026-05-08 20:14 49.37943 3.30180 13541 ft 331 kts 247°
2026-05-08 20:15 49.37070 3.26922 13023 ft 328 kts 247°
2026-05-08 20:15 49.36216 3.23746 12540 ft 325 kts 247°
2026-05-08 20:15 49.35360 3.20561 12054 ft 322 kts 247°
2026-05-08 20:15 49.34508 3.17401 11564 ft 319 kts 247°
2026-05-08 20:16 49.33668 3.14289 11208 ft 313 kts 247°
2026-05-08 20:16 49.32835 3.11206 11097 ft 308 kts 247°
2026-05-08 20:16 49.32037 3.08254 11071 ft 292 kts 247°
2026-05-08 20:16 49.31279 3.05454 11085 ft 280 kts 247°
2026-05-08 20:17 49.30521 3.02660 11073 ft 286 kts 247°
2026-05-08 20:17 49.29760 2.99860 11070 ft 284 kts 247°
2026-05-08 20:17 49.29000 2.97068 11071 ft 284 kts 247°
2026-05-08 20:17 49.28240 2.94276 11069 ft 284 kts 247°
2026-05-08 20:18 49.27478 2.91482 11086 ft 284 kts 247°
2026-05-08 20:18 49.26717 2.88691 11069 ft 284 kts 247°
2026-05-08 20:18 49.25958 2.85913 11079 ft 281 kts 247°
2026-05-08 20:18 49.25203 2.83153 11080 ft 281 kts 247°
2026-05-08 20:19 49.24446 2.80389 11080 ft 282 kts 247°
2026-05-08 20:19 49.23687 2.77623 11067 ft 282 kts 247°
2026-05-08 20:19 49.22928 2.74855 11078 ft 282 kts 247°
2026-05-08 20:19 49.22178 2.72128 11077 ft 282 kts 247°
2026-05-08 20:20 49.21403 2.69311 11063 ft 282 kts 247°
2026-05-08 20:20 49.20648 2.66569 11079 ft 282 kts 247°
2026-05-08 20:20 49.19885 2.63802 11080 ft 285 kts 247°
2026-05-08 20:20 49.19124 2.61049 11051 ft 274 kts 247°
2026-05-08 20:21 49.18445 2.58392 10952 ft 262 kts 253°
2026-05-08 20:21 49.18085 2.55739 10836 ft 251 kts 263°
2026-05-08 20:21 49.18003 2.53088 10530 ft 248 kts 268°
2026-05-08 20:21 49.17959 2.50485 10195 ft 248 kts 268°
2026-05-08 20:22 49.17906 2.47863 9860 ft 246 kts 268°
2026-05-08 20:22 49.17849 2.45248 9483 ft 246 kts 268°
2026-05-08 20:22 49.17792 2.42644 9142 ft 244 kts 267°
2026-05-08 20:22 49.17753 2.40896 8917 ft 243 kts 267°
2026-05-08 20:23 49.17683 2.37472 8445 ft 242 kts 267°
2026-05-08 20:23 49.17617 2.34905 8090 ft 242 kts 267°
2026-05-08 20:23 49.17546 2.32329 7736 ft 242 kts 266°
2026-05-08 20:23 49.17485 2.29773 7413 ft 241 kts 267°
2026-05-08 20:24 49.17421 2.27206 7057 ft 242 kts 267°
2026-05-08 20:24 49.17293 2.24643 6720 ft 241 kts 255°
2026-05-08 20:24 49.16535 2.22390 6400 ft 238 kts 232°
2026-05-08 20:24 49.15543 2.20374 6052 ft 238 kts 232°
2026-05-08 20:25 49.14546 2.18367 5763 ft 236 kts 232°
2026-05-08 20:25 49.13563 2.16358 5418 ft 237 kts 231°
2026-05-08 20:25 49.12568 2.14334 5088 ft 237 kts 231°
2026-05-08 20:25 49.11580 2.12313 4771 ft 237 kts 232°
2026-05-08 20:26 49.10603 2.10326 4449 ft 237 kts 232°
2026-05-08 20:26 49.09610 2.08306 4130 ft 237 kts 231°
2026-05-08 20:26 49.08626 2.06309 4013 ft 237 kts 231°
2026-05-08 20:26 49.07628 2.04285 3999 ft 238 kts 231°
2026-05-08 20:27 49.06545 2.02408 4004 ft 236 kts 214°
2026-05-08 20:27 49.05033 2.01519 4000 ft 234 kts 182°
2026-05-08 20:27 49.03474 2.01968 4000 ft 229 kts 150°
2026-05-08 20:27 49.02319 2.03598 4007 ft 228 kts 123°
2026-05-08 20:28 49.01456 2.05622 3999 ft 227 kts 121°
2026-05-08 20:28 49.00670 2.07690 4000 ft 226 kts 111°
2026-05-08 20:28 49.00322 2.10026 4000 ft 226 kts 94°
2026-05-08 20:28 49.00319 2.12391 3999 ft 226 kts 87°
2026-05-08 20:29 49.00442 2.14777 3999 ft 227 kts 85°
2026-05-08 20:29 49.00573 2.17174 3998 ft 226 kts 85°
2026-05-08 20:29 49.00700 2.19561 3998 ft 226 kts 85°
2026-05-08 20:29 49.00827 2.21923 3996 ft 220 kts 85°
2026-05-08 20:30 49.00949 2.24180 3978 ft 209 kts 85°
2026-05-08 20:30 49.01030 2.25689 3872 ft 213 kts 85°
2026-05-08 20:30 49.01189 2.28649 3491 ft 211 kts 85°
2026-05-08 20:30 49.01270 2.30158 3291 ft 210 kts 85°
2026-05-08 20:31 49.01387 2.32333 3009 ft 208 kts 85°
2026-05-08 20:31 49.01503 2.34500 2733 ft 199 kts 85°
2026-05-08 20:31 49.01610 2.36484 2500 ft 176 kts 85°
2026-05-08 20:31 49.01702 2.38216 2269 ft 152 kts 84°
2026-05-08 20:32 49.01785 2.39758 2069 ft 146 kts 84°
2026-05-08 20:32 49.01868 2.41292 1872 ft 144 kts 85°
2026-05-08 20:32 49.01948 2.42784 1677 ft 142 kts 85°
2026-05-08 20:32 49.02029 2.44289 1480 ft 143 kts 85°
2026-05-08 20:33 49.02109 2.45768 1288 ft 136 kts 85°
2026-05-08 20:33 49.02174 2.47192 1083 ft 138 kts 84°
2026-05-08 20:33 49.02262 2.48661 937 ft 137 kts 83°
2026-05-08 20:33 49.02351 2.50123 683 ft 139 kts 84°
2026-05-08 20:34 49.02423 2.51589 511 ft 138 kts 83°
2026-05-08 20:34 49.02504 2.53045 359 ft 133 kts 84°
2026-05-08 20:34 49.02604 2.54945 358 ft 48 kts 88°
2026-05-08 20:35 49.02547 2.55366 358 ft 33 kts 113°
2026-05-08 20:35 49.02488 2.55556 357 ft 0 kts 115°
2026-05-08 20:36 49.02488 2.55557 356 ft 1 kts 115°
2026-05-08 20:36 49.02475 2.55588 362 ft 6 kts 129°
2026-05-08 20:36 49.02401 2.55612 354 ft 17 kts 176°
2026-05-08 20:37 49.02263 2.55632 354 ft 22 kts 175°
2026-05-08 20:37 49.02158 2.55644 357 ft 11 kts 175°
2026-05-08 20:37 49.02122 2.55649 354 ft 0 kts 175°
2026-05-08 20:38 49.02100 2.55656 358 ft 9 kts 156°
2026-05-08 20:39 49.02080 2.55768 358 ft 14 kts 88°
2026-05-08 20:39 49.02087 2.55932 354 ft 17 kts 85°
2026-05-08 20:39 49.02096 2.56117 354 ft 17 kts 86°
2026-05-08 20:39 49.02080 2.56269 358 ft 16 kts 115°
2026-05-08 20:40 49.02023 2.56415 355 ft 16 kts 95°
2026-05-08 20:40 49.02031 2.56599 361 ft 18 kts 85°
2026-05-08 20:40 49.02043 2.56804 354 ft 20 kts 85°
2026-05-08 20:40 49.02055 2.57025 354 ft 22 kts 86°
2026-05-08 20:41 49.02068 2.57259 357 ft 23 kts 85°
2026-05-08 20:41 49.02080 2.57502 360 ft 24 kts 86°
2026-05-08 20:41 49.02090 2.57756 359 ft 24 kts 95°
2026-05-08 20:41 49.02019 2.57988 357 ft 25 kts 134°
2026-05-08 20:42 49.01865 2.58116 359 ft 26 kts 170°
2026-05-08 20:42 49.01676 2.58142 356 ft 28 kts 176°
2026-05-08 20:42 49.01479 2.58165 354 ft 29 kts 175°
2026-05-08 20:42 49.01275 2.58194 356 ft 31 kts 174°
2026-05-08 20:43 49.01098 2.58217 356 ft 11 kts 175°
2026-05-08 20:43 49.01045 2.58223 354 ft 4 kts 175°
2026-05-08 20:43 49.01043 2.58223 354 ft 0 kts 175°
2026-05-08 20:44 49.01041 2.58223 354 ft 2 kts 175°
2026-05-08 20:44 49.01013 2.58227 354 ft 6 kts 175°
2026-05-08 20:44 49.00953 2.58229 356 ft 11 kts 189°
2026-05-08 20:44 49.00910 2.58127 361 ft 14 kts 266°
2026-05-08 20:45 49.00901 2.57961 354 ft 18 kts 265°
2026-05-08 20:45 49.00890 2.57757 354 ft 21 kts 265°
2026-05-08 20:45 49.00880 2.57563 363 ft 16 kts 265°
2026-05-08 20:45 49.00868 2.57376 354 ft 18 kts 263°
2026-05-08 20:46 49.00859 2.57245 354 ft 12 kts 264°
2026-05-08 20:46 49.00838 2.57212 361 ft 5 kts 206°
2026-05-08 20:46 49.00791 2.57214 360 ft 6 kts 171°
2026-05-08 20:46 49.00786 2.57215 358 ft 0 kts 171°
2026-05-08 20:48 49.00781 2.57216 357 ft 3 kts 171°
2026-05-08 20:48 49.00747 2.57225 354 ft 7 kts 171°
2026-05-08 20:48 49.00690 2.57196 357 ft 11 kts 228°
2026-05-08 20:48 49.00666 2.57070 356 ft 14 kts 257°
2026-05-08 20:49 49.00653 2.56950 357 ft 13 kts 267°
2026-05-08 20:49 49.00645 2.56794 354 ft 17 kts 265°
2026-05-08 20:49 49.00636 2.56628 361 ft 12 kts 265°
2026-05-08 20:49 49.00661 2.56567 362 ft 8 kts 350°
2026-05-08 20:50 49.00693 2.56563 360 ft 0 kts 355°
2026-05-08 20:50 49.00694 2.56563 358 ft 0 kts 355°